User: anonymous   Login
Location: Unspecified
(0.0000°N, 0.0000°E)
Time: 15:33:23
(UTC+00:00)
Language:

OFEQ 11 - Orbit

View from above orbital plane
View from above orbital plane
View from above satellite
View from above satellite

Ground track
Ground track

The orbit data is extracted from the following two-line orbital elements,

1 41759U 16056A   17212.07116956 0.00004950  00000-0  92694-4 0    07
2 41759 141.9432 124.4032 0096699 184.6356 175.3636 15.42596260    01
Epoch (UTC): 31 July 2017 01:42:29
Eccentricity: 0.0096699
inclination: 141.9432°
perigee height: 372 km
apogee height: 504 km
right ascension of ascending node: 124.4032°
argument of perigee: 184.6356°
revolutions per day: 15.42596260
mean anomaly at epoch: 175.3636°
orbit number at epoch: 0

The dashed part of the orbit path shows where the satellite is in the earth's shadow,  

DLR